Regional Weather Roundup
Issued by NWS

Home | Current Version | Previous Version | Graphics & Text | Print | Product List | Glossary On
Versions: 1 2 3 4 5 6 7 8 9 10 11 12 13 14 15 16 17 18 19 20 21 22 23 24 25 26 27 28 29 30 31 32 33 34 35 36 37 38 39 40 41 42 43 44 45 46 47 48 49 50
000
ASUS43 KOAX 252002
RWRNE

WEATHER ROUNDUP FOR NEBRASKA
NATIONAL WEATHER SERVICE OMAHA NE
300 PM CDT TUE JUL 25 2017

NOTES: SATELLITE DATA IS BEING USED TO AUGMENT CLOUD COVER ABOVE
       12000 FEET.
       "FAIR" INDICATES FEW OR NO CLOUDS BELOW 12,000 FEET WITH NO
       SIGNIFICANT WEATHER AND/OR OBSTRUCTIONS TO VISIBILITY.


NEZ001>004-019>022-054>056-252100-
NEBRASKA PANHANDLE

CITY           SKY/WX    TMP DP  RH WIND       PRES   REMARKS
SCOTTSBLUFF    CLOUDY    92  56  29 W8        29.98S HX  90
ALLIANCE       SUNNY     99  52  20 SW12G17   29.94F HX  96
CHADRON        CLOUDY    93  55  27 NE14      29.95F HX  91
GORDON         FAIR      94  62  34 N12       29.95F HX  94
KIMBALL        CLOUDY    89  47  23 N16G22    30.05F
SIDNEY         MOSUNNY   97  53  22 SW10      29.99F HX  94
$$

NEZ057>060-069>072-079>082-252100-
SOUTHWEST NEBRASKA

CITY           SKY/WX    TMP DP  RH WIND       PRES   REMARKS
NORTH PLATTE   SUNNY     99  66  33 S17G26    29.92F HX 103
IMPERIAL       SUNNY    101  58  24 S15G28    29.94F HX 100
LEXINGTON      SUNNY     91  70  51 S16G22    29.96S HX  96
MCCOOK         SUNNY    100  66  32 S20       29.93F HX 104
OGALLALA       SUNNY    101  58  23 S17G24    29.93F HX 101
$$

NEZ005>010-023>029-035>040-094-252100-
NORTH CENTRAL NEBRASKA

CITY           SKY/WX    TMP DP  RH WIND       PRES   REMARKS
VALENTINE      CLOUDY   101  56  22 SW18      29.88S HX 100
AINSWORTH      CLOUDY    96  60  31 S16       29.91S HX  95
BROKEN BOW     MOSUNNY   95  70  44 S24G31    29.95F HX 101
O`NEILL        SUNNY     95  68  41 S21       29.92S HX 100
ORD            CLOUDY    91  66  43 S20G28    29.94S HX  93
THEDFORD       MOSUNNY  102  60  25 S24       29.92F HX 102
$$

NEZ041-046>049-061>064-073>077-083>087-252100-
SOUTH CENTRAL NEBRASKA

CITY           SKY/WX    TMP DP  RH WIND       PRES   REMARKS
GRAND ISLAND   MOSUNNY   93  68  43 S17       29.98S HX  97
AURORA         MOSUNNY   92  66  43 S15G21    29.99S HX  94
HASTINGS       MOSUNNY   93  67  42 S14       29.99F HX  96
HEBRON         MOSUNNY   94  66  39 S12G18    29.99S HX  96
HOLDREGE       SUNNY     90  68  49 S13G23    29.97F HX  93
KEARNEY        SUNNY     93  72  50 S16       29.97F HX 101
YORK           SUNNY     90  72  55 S15       29.99F HX  96
$$

NEZ011>018-030>034-042>045-252100-
NORTHEAST NEBRASKA

CITY           SKY/WX    TMP DP  RH WIND       PRES   REMARKS
NORFOLK        SUNNY     98  58  26 S20G26    29.94F HX  97
ALBION         MOSUNNY   96  67  39 S14       29.96S HX 100
BLAIR          SUNNY     92  74  55 S15       30.00S HX 101
COLUMBUS       SUNNY     94  68  42 S22       29.97F HX  98
FREMONT        SUNNY     94  70  46 S12G18    29.99S HX  99
TEKAMAH        SUNNY     94  71  47 S14       29.97F HX 101
WAYNE          SUNNY     96  65  35 S17       29.94F HX  98
$$

NEZ050>053-065>068-078-088>093-252100-
SOUTHEAST NEBRASKA

CITY           SKY/WX    TMP DP  RH WIND       PRES   REMARKS
LINCOLN        SUNNY     96  68  39 S17       29.98F HX 101
OMAHA EPPLEY   MOSUNNY   94  74  52 S13       29.99F HX 104
BEATRICE       SUNNY     97  67  37 S14G22    29.99F HX 102
FALLS CITY     SUNNY     96  70  42 SE14      30.01F HX 102
NEBRASKA CITY  SUNNY     93  72  49 S13       30.01F HX 100
PLATTSMOUTH    SUNNY     92  73  53 S12G17    30.01S HX 101
$$

NEZ044-045-051>053-067-252100-
OMAHA AREA

CITY           SKY/WX    TMP DP  RH WIND       PRES   REMARKS
OMAHA EPPLEY   MOSUNNY   94  74  52 S13       29.99F HX 104
BLAIR          SUNNY     92  74  55 S15       30.00S HX 101
FREMONT        SUNNY     94  70  46 S12G18    29.99S HX  99
MILLARD        SUNNY     95  76  53 S10G17    29.98F HX 109
OFFUTT AFB       N/A     94  74  53 SE14G20   29.99F HX 104
PLATTSMOUTH    SUNNY     92  73  53 S12G17    30.01S HX 101
WAHOO          FAIR      94  71  46 S13G20    29.98F HX 100
$$




USA.gov is the U.S. government's official web portal to all federal, state and local government web resources and services.